GFSCGP_700_spd_111.txt.gz
Wind_Speed
10 13 15 16 16 17 20 19 21 21 15 22 21 23 22 16 23 23 21 22 27 28 31 33 32 30 30 30 30 28 27 29 28 25 27 29 27 26 25 23 25 25 24 22
9 11 14 17 17 17 15 18 23 19 19 13 21 17 8 12 10 16 21 22 28 32 28 33 33 32 30 32 33 29 29 30 30 24 27 29 26 27 26 26 28 31 30 27
7 10 9 14 19 20 17 18 25 17 18 11 25 11 12 14 8 9 14 21 23 29 30 30 37 32 31 32 34 32 29 30 30 33 31 30 31 31 32 35 36 38 39 34
4 10 10 13 20 23 20 27 17 8 12 11 23 4 12 24 8 6 10 17 21 22 29 27 27 35 32 30 31 35 25 23 27 40 32 34 34 39 40 42 43 43 42 37
7 6 12 14 19 19 25 26 6 6 8 19 22 4 5 35 24 12 10 15 15 18 21 27 22 22 29 30 22 21 25 28 29 30 27 21 26 38 40 41 43 49 41 34
7 5 12 15 18 18 26 21 1 4 8 6 12 11 10 30 30 19 9 8 9 9 14 21 20 17 18 24 28 21 22 26 27 24 24 23 27 29 41 45 53 48 24 21
8 3 13 16 19 14 23 22 7 5 7 3 13 8 13 30 17 20 13 5 1 8 16 15 15 13 15 17 23 23 19 20 18 23 24 24 33 38 33 32 38 30 5 12
11 3 10 12 15 16 21 19 6 1 3 7 7 13 22 37 19 17 11 8 10 11 12 12 14 17 19 17 19 19 17 15 15 12 16 20 22 2 6 1 13 13 14 18
8 4 6 8 10 17 12 15 12 0 2 4 5 9 15 32 15 19 15 14 15 12 11 11 12 13 14 16 16 15 13 12 10 12 11 13 3 17 18 13 12 3 15 23
10 8 5 7 6 11 13 19 7 7 5 5 7 6 21 35 22 18 17 16 15 14 10 8 7 10 10 12 14 10 8 4 8 11 10 10 11 9 1 7 9 13 17 23
12 8 7 6 4 9 11 16 11 5 2 1 5 4 26 27 24 16 14 13 14 14 14 10 9 7 5 6 6 3 9 6 10 2 4 4 7 5 7 7 10 9 12 13
9 9 12 8 1 3 6 12 17 5 4 3 2 4 20 15 21 17 15 13 14 14 12 8 8 9 6 6 11 5 6 7 2 4 5 5 6 6 8 9 10 9 10 12
13 5 8 2 1 3 6 9 14 11 6 2 2 5 15 14 11 10 16 15 15 14 13 11 9 10 8 12 8 7 9 8 8 8 8 7 8 9 8 8 9 11 13 15
10 8 8 8 13 17 18 11 9 8 4 9 4 7 9 10 10 12 12 12 11 15 16 12 11 9 9 10 11 13 13 13 12 10 9 7 4 6 8 9 11 14 16 20
6 9 14 15 19 17 16 8 8 9 7 5 9 8 6 6 7 9 11 13 13 15 16 14 14 14 13 13 12 11 9 8 6 6 4 4 5 7 9 12 15 17 20 24
10 8 19 19 9 8 12 9 10 7 5 6 7 5 3 2 4 7 8 10 11 13 12 12 12 11 10 9 7 5 4 3 2 2 3 5 7 9 12 14 17 20 22 25
14 11 11 7 9 12 12 6 8 6 4 4 5 3 2 1 1 5 6 7 8 7 7 7 6 6 6 4 3 3 3 4 5 5 6 8 10 12 14 17 19 20 22 23
14 12 8 11 11 2 2 3 6 6 5 4 3 2 2 2 4 4 5 5 4 5 4 4 4 3 3 3 4 4 5 6 7 8 10 13 16 18 19 20 21 20 20 21
10 12 6 4 7 14 11 13 10 10 7 5 3 1 2 4 5 3 3 3 3 3 2 2 2 3 4 6 7 8 8 9 10 12 15 17 18 20 20 18 17 18 19 20
8 10 10 5 3 4 3 3 4 8 9 5 6 2 2 4 4 3 3 3 3 2 1 1 2 3 5 7 8 9 8 9 11 14 17 19 20 19 16 17 19 21 22 23
7 9 16 16 9 10 12 12 8 5 3 2 4 3 3 3 4 5 5 5 6 5 4 3 4 6 7 9 10 10 11 14 16 19 21 22 19 18 19 21 21 22 24 27
8 6 7 7 7 7 3 5 10 8 7 6 6 6 6 6 5 6 7 7 8 8 7 6 5 6 9 11 12 12 13 16 19 22 23 20 18 19 19 20 22 24 25 25
13 13 10 9 8 17 17 17 15 13 11 12 12 10 8 6 6 6 7 8 10 10 10 9 8 8 9 11 12 13 14 17 20 22 20 17 17 18 19 21 23 24 24 24
23 22 20 18 14 13 17 19 22 23 20 16 14 13 12 12 12 13 13 12 11 12 12 11 10 10 10 12 13 14 15 17 20 20 17 17 17 18 19 21 23 23 23 24
30 25 26 25 22 16 21 19 18 21 24 28 28 25 24 24 18 17 16 15 14 13 13 13 12 12 12 12 14 15 17 18 20 17 17 17 17 18 20 22 24 24 25 24
40 37 34 31 24 21 20 22 23 24 24 28 26 23 24 21 17 18 17 16 15 14 14 14 13 13 13 13 14 16 17 19 18 16 16 16 17 18 20 23 26 25 25 25

GFSCGP_700_spd_114.txt.gz
Wind_Speed
4 6 7 10 15 14 16 14 17 15 12 15 13 16 8 13 14 16 19 17 19 28 30 27 32 28 28 29 31 33 29 27 25 22 23 23 21 24 28 29 27 25 25 24
6 5 8 12 17 16 13 13 15 8 15 7 18 4 8 14 12 12 11 18 24 29 29 30 29 30 25 26 29 32 35 32 27 24 23 21 20 25 28 32 30 29 29 30
2 6 9 12 15 18 13 13 17 10 11 12 15 3 5 22 12 13 14 15 18 24 30 30 31 29 26 24 25 28 30 30 28 29 27 25 27 27 29 32 35 34 34 36
3 8 12 10 13 18 11 22 15 5 6 10 20 4 10 26 17 11 14 16 14 18 23 30 28 30 26 21 21 23 27 25 28 31 30 35 31 29 32 35 39 39 43 42
6 4 10 12 17 16 15 25 3 4 3 5 19 4 12 25 24 22 10 12 11 10 19 28 27 24 22 26 19 17 25 39 31 34 31 35 30 35 38 43 46 39 38 44
7 4 9 13 15 14 24 15 4 4 4 4 11 9 15 33 26 22 14 7 5 9 15 22 26 19 16 18 24 17 18 22 21 23 25 22 27 25 26 35 36 42 43 46
4 2 12 12 17 10 22 16 3 2 4 5 11 7 10 27 19 19 19 9 1 6 9 18 22 17 13 13 16 19 20 17 18 21 23 24 28 32 33 34 40 33 41 43
6 1 8 9 12 14 17 11 5 3 6 6 10 15 15 13 18 11 14 10 10 12 13 18 20 18 16 14 15 20 19 16 13 14 15 25 25 14 18 6 15 26 20 13
7 3 4 7 7 13 10 10 8 1 3 4 5 18 14 14 15 12 13 11 11 13 15 15 15 15 13 12 13 16 17 16 13 15 8 10 15 3 5 14 12 11 15 11
7 6 3 8 4 8 9 14 5 4 5 5 7 14 14 16 19 19 17 15 16 12 13 13 11 11 12 11 12 14 14 12 9 6 2 9 16 16 9 7 5 8 15 14
9 6 5 5 3 4 6 7 6 2 2 4 6 8 16 18 17 15 16 15 11 14 14 15 13 11 9 10 10 10 8 6 7 6 5 10 11 7 8 9 7 10 15 15
6 7 7 6 4 3 4 6 9 5 3 3 3 3 15 10 11 12 13 11 11 10 11 15 14 10 9 7 7 8 8 11 9 8 7 11 9 7 7 10 9 7 10 10
8 3 7 3 3 5 6 11 9 9 4 2 4 5 12 11 10 15 13 11 12 14 15 15 15 15 15 12 13 8 4 10 10 10 9 8 9 8 9 9 8 7 9 13
7 8 8 9 9 16 15 11 13 7 4 5 4 5 8 8 6 6 10 9 13 16 15 15 12 14 10 11 10 11 13 13 10 9 11 9 8 8 8 9 10 11 14 16
5 7 12 14 19 17 16 14 10 11 8 5 5 7 5 3 3 4 6 9 10 9 13 13 12 14 14 14 13 12 10 9 8 7 6 5 6 8 9 11 14 16 18 21
7 7 13 18 10 9 13 10 12 12 10 8 6 5 3 2 1 3 5 8 11 11 11 11 11 10 10 9 8 7 5 4 3 4 5 6 8 9 11 14 16 18 21 23
10 7 7 5 9 19 11 4 14 11 8 5 4 5 2 3 4 5 5 6 7 7 8 7 6 5 5 4 3 3 2 2 3 4 5 6 8 11 14 16 18 20 21 23
10 9 7 8 8 3 3 3 4 9 9 7 6 5 3 4 6 7 7 7 6 5 5 4 4 3 2 1 0 1 2 3 3 4 6 8 11 13 15 16 17 16 17 19
10 10 5 3 5 13 8 7 13 10 10 7 7 7 5 5 7 7 7 7 7 7 6 5 4 2 0 2 4 4 4 4 5 7 9 12 14 15 14 12 13 14 15 16
10 12 9 4 4 3 5 5 4 5 10 9 11 9 6 7 8 7 8 7 7 7 7 6 4 3 2 3 4 5 6 7 8 11 13 16 17 14 13 14 15 15 16 17
12 12 14 11 7 9 10 11 10 3 3 2 6 7 6 6 9 8 8 9 9 9 8 7 5 4 3 4 6 7 7 9 11 13 15 17 14 13 14 14 14 14 15 16
12 9 10 10 8 7 3 2 7 5 6 6 7 7 7 9 9 9 9 9 10 10 10 9 8 7 6 6 8 9 9 11 13 16 17 15 13 14 13 13 14 15 16 18
18 21 9 11 6 10 11 7 9 11 11 9 11 13 12 11 10 9 8 9 10 11 13 13 11 10 8 8 9 10 11 13 14 17 17 14 15 14 14 15 16 16 17 18
24 21 24 19 16 11 13 12 14 17 15 17 17 15 16 13 12 11 11 12 12 13 14 15 14 13 11 10 10 12 13 14 16 18 17 16 14 15 15 16 16 17 18 19
26 25 29 30 28 21 16 18 16 18 18 15 18 24 23 21 19 20 18 18 16 16 17 17 16 16 14 12 11 13 14 15 16 17 16 15 14 14 16 16 17 18 19 19
37 36 36 35 28 25 21 22 24 24 19 19 17 17 24 30 29 26 21 18 18 18 17 17 17 17 15 14 13 13 14 16 16 17 15 14 14 15 17 18 18 18 20 20

GFSCGP_700_spd_117.txt.gz
Wind_Speed
7 4 7 10 11 13 16 17 16 15 8 11 13 10 4 10 10 9 10 10 11 15 18 22 26 29 38 33 41 61 38 35 33 19 22 26 24 24 26 24 23 24 25 25
8 5 9 11 12 15 16 14 16 9 9 10 19 6 4 12 11 11 13 13 11 15 16 14 23 27 33 26 28 37 40 30 29 35 25 28 27 27 27 24 25 25 27 29
6 7 11 11 13 16 14 11 20 16 14 9 22 7 5 16 13 14 9 9 10 11 14 16 18 27 28 24 32 28 29 34 28 26 24 25 26 27 25 25 24 26 29 34
5 10 10 11 11 15 11 22 14 7 8 10 15 3 4 20 19 17 16 13 11 14 16 13 22 23 26 22 21 25 21 29 30 30 25 25 27 25 26 27 26 27 29 33
5 10 9 8 13 12 13 18 9 5 8 9 16 7 8 24 27 27 21 14 7 9 18 22 14 21 22 24 24 21 20 26 31 28 22 27 27 27 28 31 36 42 40 42
6 6 7 8 12 11 22 15 10 7 6 2 17 7 9 27 28 25 26 15 10 7 12 20 14 22 17 15 23 20 20 29 27 27 21 27 24 30 32 29 31 33 34 34
7 4 9 10 13 9 18 17 4 3 5 7 17 5 7 19 26 23 22 19 8 3 8 11 9 18 16 12 12 11 10 22 14 11 17 27 22 30 28 26 31 34 31 35
3 3 5 11 10 13 11 11 4 2 5 7 10 11 10 20 21 20 18 15 9 7 6 13 16 18 13 12 13 8 10 13 11 8 8 10 11 17 20 15 10 18 26 27
3 2 6 9 7 11 9 11 7 3 5 6 1 14 9 15 17 17 20 17 9 11 12 12 11 9 9 8 6 5 9 9 8 7 7 5 9 14 1 3 1 4 11 10
5 4 5 10 5 8 8 12 4 3 4 5 4 10 13 18 19 18 14 16 15 11 14 14 11 10 7 6 6 9 8 8 8 6 4 3 1 4 14 11 4 3 3 4
3 2 2 8 1 3 6 6 6 4 3 4 7 8 12 13 15 13 12 15 15 14 12 12 11 10 10 9 7 7 6 5 6 7 3 8 12 11 6 5 5 9 11 12
4 4 5 3 8 4 4 3 6 6 8 6 6 4 11 13 10 11 10 13 12 11 15 14 17 15 14 12 11 12 11 10 11 11 13 12 9 9 9 10 9 11 10 9
5 2 6 6 1 2 2 6 7 7 6 7 5 5 11 10 7 9 7 9 11 12 15 15 14 13 12 13 13 11 8 9 9 7 6 7 10 10 8 8 7 8 9 10
6 6 9 9 6 8 12 10 8 9 6 11 5 5 5 6 5 5 4 8 11 13 14 12 11 12 11 12 10 13 14 11 11 10 10 9 7 7 7 7 10 12 13 14
5 6 9 14 14 14 16 14 14 15 13 9 8 8 6 4 4 3 3 3 7 10 12 13 13 12 12 10 11 10 8 9 9 8 10 6 7 9 10 12 14 16 17 19
6 6 11 14 9 9 12 13 11 14 15 14 14 13 8 6 3 2 1 3 6 8 10 10 9 8 8 8 7 6 5 4 5 4 6 9 9 11 13 14 16 18 20 23
7 5 7 4 7 11 12 6 12 13 12 8 7 5 9 6 5 5 5 5 4 5 6 6 6 6 5 3 2 1 2 4 5 7 7 8 10 12 14 16 18 20 22 22
10 6 6 7 8 4 3 5 3 8 10 11 11 10 7 7 6 7 7 7 6 6 5 4 4 4 3 2 2 3 4 5 5 6 7 9 11 14 17 18 19 19 18 19
15 8 6 4 6 12 5 6 6 11 7 11 12 12 8 7 7 8 8 9 8 8 7 6 5 4 3 3 3 4 4 4 5 7 9 11 14 16 16 15 14 15 16 17
15 15 9 5 4 3 4 6 7 3 10 10 15 14 11 8 8 8 8 9 9 8 8 7 7 6 5 4 4 4 4 5 7 8 10 13 15 14 12 13 14 14 15 16
14 14 16 12 7 8 10 8 8 3 2 5 7 12 11 8 11 11 10 11 11 11 11 10 10 9 7 6 5 5 6 7 9 11 13 15 15 13 12 12 13 14 15 15
17 12 11 13 9 9 9 3 6 8 8 7 7 9 11 12 10 12 11 11 11 12 12 13 13 12 10 9 8 7 7 9 10 13 15 16 15 14 14 14 15 16 17 17
20 20 10 15 7 11 11 10 9 10 12 11 12 13 13 14 14 14 13 12 11 12 14 15 16 15 14 12 11 10 10 11 12 14 16 17 16 15 14 15 15 17 17 18
26 24 24 23 22 22 20 14 14 14 15 15 15 18 19 17 17 17 16 13 12 12 13 15 17 17 17 15 14 12 12 13 14 15 17 17 16 15 15 15 16 17 17 18
22 25 27 29 27 24 23 21 20 19 18 19 19 17 19 22 21 21 20 19 18 18 18 18 19 19 19 18 16 14 14 15 16 16 17 18 16 16 16 16 17 18 18 18
33 32 32 32 19 18 14 18 24 25 24 23 23 20 18 19 23 29 27 26 26 24 21 20 20 20 21 20 18 16 15 16 17 18 18 18 17 16 17 18 18 19 19 18

GFSCGP_700_spd_120.txt.gz
Wind_Speed
10 6 4 12 9 10 15 17 19 15 14 15 8 14 6 5 6 13 12 10 14 14 18 15 26 24 29 33 38 37 36 37 41 41 25 27 30 29 29 29 23 23 22 22
8 8 9 14 12 13 16 17 13 18 8 14 13 21 5 10 15 23 19 18 14 21 22 19 14 25 28 31 34 31 27 36 38 31 28 30 29 28 29 27 25 23 22 24
8 9 13 11 10 14 12 10 20 15 9 9 10 3 6 10 18 24 25 18 19 20 26 21 16 15 19 23 18 24 24 30 41 31 31 30 32 30 31 26 21 19 20 24
3 10 10 9 8 15 13 18 15 9 8 10 10 3 4 11 25 28 20 22 17 16 29 27 28 16 15 12 14 19 21 27 26 37 36 28 28 25 26 21 20 21 24 25
4 11 8 7 10 11 15 19 15 14 6 7 14 5 1 20 29 30 23 22 15 12 10 18 23 9 10 11 13 13 14 23 33 15 45 29 25 25 23 23 24 26 29 33
5 9 4 8 9 9 18 19 6 10 3 2 14 5 7 25 28 30 23 20 15 6 7 6 15 9 11 15 11 11 10 12 17 30 15 25 28 27 25 22 23 25 26 35
6 8 11 5 9 7 14 20 6 3 2 2 12 4 5 20 25 26 28 20 14 5 1 5 7 15 15 9 6 9 12 4 5 14 28 18 13 13 14 20 19 28 27 29
3 4 2 8 7 9 9 13 4 2 3 5 7 4 8 15 20 24 22 20 15 9 6 9 9 12 10 7 5 5 7 7 10 4 3 11 7 11 6 25 16 16 23 25
3 3 8 5 6 7 5 10 6 3 7 4 4 7 11 16 15 18 19 16 14 11 11 9 8 7 5 5 7 6 8 10 9 11 12 10 12 8 6 11 5 6 11 9
3 4 6 10 4 5 8 8 3 2 3 5 4 8 11 17 17 13 14 10 11 12 11 9 8 6 5 7 6 7 8 8 5 6 5 6 5 6 9 10 7 3 6 5
6 3 2 7 1 2 3 3 2 5 2 2 4 5 11 16 14 12 12 15 10 6 8 9 8 7 7 7 8 8 9 8 7 8 4 5 9 11 11 6 5 2 3 6
6 6 6 4 9 6 4 4 1 2 4 6 10 2 12 15 13 14 11 13 14 9 8 8 10 9 9 9 9 12 12 10 10 9 11 13 9 8 5 6 8 5 6 4
3 2 5 5 3 1 2 4 7 2 5 8 3 2 8 12 9 13 11 8 11 11 8 12 11 11 13 12 12 10 8 6 7 8 7 7 6 5 5 8 5 7 5 7
5 8 10 10 5 5 8 8 10 6 4 10 4 6 5 12 11 9 6 11 7 7 8 10 8 8 11 9 5 6 8 12 9 3 1 2 3 6 5 8 7 10 11 13
6 7 6 15 17 16 15 15 13 17 15 8 7 7 8 14 11 5 4 3 6 8 8 7 6 8 7 6 6 5 4 4 3 5 5 6 7 7 9 11 12 15 15 16
7 5 9 14 6 9 14 13 13 14 15 16 14 9 9 12 8 5 0 3 4 7 9 9 8 7 6 6 5 3 1 0 2 4 6 7 8 10 11 13 16 17 19 21
8 4 4 5 5 9 12 8 10 13 13 10 11 10 9 9 7 6 3 3 3 4 4 5 4 3 3 2 1 2 3 4 5 6 7 8 10 12 14 16 18 20 21 22
9 7 6 8 7 4 3 4 6 5 9 13 14 14 12 8 6 7 6 6 6 5 4 3 3 2 1 0 2 3 5 6 6 6 8 10 11 13 16 18 19 18 17 16
17 12 5 4 7 12 11 7 2 6 9 11 13 14 11 9 7 8 7 8 7 7 7 6 5 4 3 2 3 4 4 5 6 8 10 11 14 17 19 17 16 17 16 16
22 19 13 8 5 4 7 5 8 7 9 12 12 15 12 10 11 7 7 8 8 8 8 8 8 7 6 5 4 4 5 6 7 9 10 13 15 17 16 15 15 16 16 17
23 22 24 17 8 9 14 9 7 4 4 6 7 12 13 11 13 9 8 9 9 10 11 10 10 10 9 8 7 6 6 6 7 9 11 13 16 16 15 15 14 14 15 16
23 21 20 18 12 13 12 12 10 6 8 8 8 10 10 12 11 11 12 12 11 11 12 12 13 13 12 12 11 9 8 8 9 10 12 14 16 16 15 14 14 14 15 16
23 28 22 19 13 11 10 9 10 10 10 10 10 10 13 14 13 14 14 14 14 13 12 13 14 14 15 15 14 13 11 11 11 11 13 15 17 16 16 14 15 15 16 16
30 24 29 24 26 25 20 20 17 14 13 14 15 13 14 16 18 18 18 18 18 16 13 12 14 14 15 17 17 16 15 14 14 14 14 16 17 17 16 16 15 17 17 17
33 31 30 31 29 23 24 20 17 18 20 19 17 18 16 18 20 20 21 21 19 19 17 16 17 17 17 19 20 17 18 17 16 15 16 17 18 18 17 16 17 17 18 18
37 35 33 27 28 28 26 23 20 21 24 23 23 23 23 21 20 20 21 23 25 25 24 23 23 21 20 21 21 18 19 19 18 17 17 18 18 18 17 16 17 18 17 18

GFSCGP_700_spd_123.txt.gz
Wind_Speed
9 9 8 8 13 9 14 15 18 15 11 12 11 14 18 16 10 18 25 25 22 20 29 31 19 13 19 25 28 23 27 29 27 34 34 31 28 27 27 26 29 28 21 19
7 12 10 11 10 10 11 12 15 20 8 13 9 19 16 19 17 29 34 29 23 19 28 30 16 19 16 22 24 21 24 24 26 33 40 36 22 27 28 28 27 27 22 19
10 10 9 14 7 11 13 9 17 13 10 5 4 5 10 17 20 29 28 26 25 19 22 34 23 16 20 13 23 26 31 26 23 26 32 20 23 25 28 30 29 29 20 17
7 8 10 10 6 13 12 12 6 9 11 3 8 4 13 14 29 31 26 25 22 15 12 33 28 15 10 11 11 15 16 20 19 22 27 27 24 26 30 30 25 22 20 19
4 6 11 6 7 10 11 17 6 8 8 8 9 5 7 16 28 29 27 26 20 11 3 14 23 23 14 11 6 10 12 11 13 13 20 25 33 26 29 23 20 23 23 23
5 6 4 8 7 6 15 9 2 2 3 2 7 5 6 20 25 29 28 24 19 9 5 3 19 15 14 10 5 7 8 5 4 4 10 28 32 35 32 29 22 18 18 29
2 8 8 4 5 6 8 12 5 4 2 4 9 6 7 18 23 24 28 22 17 8 9 13 16 9 11 8 6 5 6 7 6 3 6 22 4 17 17 17 11 11 16 17
2 5 7 6 6 3 8 11 3 4 0 5 5 5 8 15 26 19 23 20 17 10 9 8 15 14 10 10 5 6 10 6 8 7 11 8 5 9 12 8 6 15 21 22
5 4 4 3 4 3 2 4 6 1 4 3 1 1 4 20 18 17 20 13 15 13 14 18 16 13 12 9 9 7 7 5 9 5 11 11 9 9 11 17 13 17 18 21
5 3 3 5 2 2 4 4 2 2 2 3 2 2 11 19 20 20 16 10 11 12 11 13 13 10 9 9 8 8 10 9 10 11 10 8 10 13 14 12 6 4 5 7
5 6 4 5 4 3 2 3 2 2 2 3 2 4 11 16 17 18 13 11 11 10 10 12 11 12 10 10 11 12 11 10 9 8 10 10 13 14 14 12 6 2 4 5
5 4 4 7 7 7 7 7 4 3 3 3 4 4 9 14 15 14 12 10 8 10 11 11 12 11 11 10 11 12 13 11 9 9 9 9 11 12 9 5 5 5 5 3
5 6 4 3 9 8 7 7 5 6 4 5 1 4 7 13 16 12 9 5 5 8 10 12 11 13 16 14 9 8 12 11 10 11 12 9 5 3 2 3 4 4 2 5
6 9 9 9 6 3 8 8 9 9 6 4 5 4 6 13 15 9 7 6 4 3 5 7 11 11 13 9 12 7 9 8 8 6 4 0 1 3 3 4 5 6 8 10
10 7 9 12 13 13 17 19 18 21 18 10 11 5 8 13 12 6 3 3 4 5 7 5 10 9 6 8 9 9 7 4 3 1 2 2 4 4 6 7 10 12 12 12
14 7 7 7 5 7 11 14 17 20 20 22 20 16 10 8 9 6 3 1 3 5 6 6 6 7 7 6 5 4 4 3 2 0 2 3 5 6 8 10 11 14 15 17
15 10 5 4 4 6 13 6 11 13 17 14 21 13 9 7 8 5 6 5 4 5 5 4 4 3 3 4 3 2 2 2 2 3 3 4 6 9 11 13 15 17 17 18
14 13 8 4 5 3 3 5 8 8 7 14 16 15 11 11 9 5 7 7 6 6 5 4 3 2 2 1 2 2 2 2 3 4 6 7 8 9 12 14 15 14 13 13
18 15 6 4 7 9 14 13 11 7 8 14 13 16 15 13 11 8 7 8 8 8 7 6 5 4 3 1 0 2 4 4 4 4 5 6 9 12 14 15 14 13 13 13
23 21 17 11 5 7 5 8 7 9 12 11 13 15 16 16 15 7 8 8 9 10 9 8 8 7 6 5 3 2 2 3 4 5 8 9 11 14 15 15 15 14 14 14
31 28 28 18 10 10 14 12 9 6 5 3 7 9 12 15 12 11 10 9 10 12 11 11 11 11 11 9 8 7 5 6 6 8 9 11 14 15 15 16 14 14 15 15
29 29 26 21 13 15 16 16 16 7 4 5 5 6 7 10 12 11 12 11 10 11 12 12 13 13 13 13 12 11 9 10 9 9 10 12 14 17 17 17 16 15 16 16
26 29 29 24 23 13 9 7 10 9 7 7 7 7 8 10 11 13 14 14 13 12 13 14 15 15 15 15 15 14 12 13 12 12 12 13 15 16 17 18 16 16 16 17
37 23 30 26 27 27 22 17 17 15 13 12 11 10 11 12 13 14 16 17 16 16 15 15 16 14 13 14 15 16 15 16 15 14 14 14 15 17 18 18 17 17 17 16
37 36 34 31 27 25 22 21 22 20 16 16 17 15 14 16 16 17 18 20 19 18 17 17 16 15 13 15 16 17 17 18 17 16 16 16 16 17 18 18 18 18 17 17
41 39 37 35 27 27 22 17 18 22 22 20 18 18 21 21 20 20 21 21 21 20 20 21 22 20 17 17 18 19 18 19 18 17 17 17 17 18 18 18 18 18 18 17

GFSCGP_700_spd_126.txt.gz
Wind_Speed
4 4 6 7 10 8 10 12 16 13 11 16 13 17 21 24 23 22 27 34 36 28 20 20 22 24 25 21 15 15 23 20 17 15 16 22 22 23 20 22 25 30 20 17
7 8 7 8 12 11 10 15 11 4 3 8 9 19 22 21 18 25 31 29 33 28 20 18 20 16 21 23 19 14 17 19 17 17 20 25 23 24 20 23 25 25 29 18
8 7 8 8 11 12 11 10 11 8 7 3 6 14 16 16 18 28 27 25 24 25 17 16 23 17 15 22 20 13 16 16 12 14 17 21 27 23 26 25 27 26 22 24
7 8 7 8 12 11 11 9 7 5 9 1 4 6 12 11 21 29 30 27 27 18 12 9 28 18 13 14 15 12 15 17 17 19 17 19 15 26 20 25 26 25 26 23
5 5 7 9 7 10 5 12 6 4 5 5 3 6 5 17 30 31 28 27 22 11 6 3 26 20 12 8 11 18 11 8 11 14 12 13 17 30 18 22 26 24 24 17
8 7 5 4 7 6 7 8 2 3 1 1 4 4 6 20 30 28 28 24 17 13 7 6 21 20 13 5 5 10 8 9 7 8 13 10 9 4 16 18 29 20 25 21
6 10 8 6 5 4 5 2 1 2 2 4 5 4 8 21 23 22 26 22 17 12 12 14 16 14 14 10 12 9 10 10 11 12 13 15 11 4 11 18 25 27 24 15
6 4 8 4 5 3 3 4 1 5 1 4 2 3 7 19 20 21 21 17 16 12 8 13 12 14 16 17 14 12 13 11 8 6 8 14 24 14 4 11 13 10 8 14
7 5 7 5 4 3 3 2 2 2 2 1 2 5 9 15 20 18 14 11 10 12 25 17 15 12 13 13 11 10 10 7 9 8 9 13 16 11 15 13 9 6 14 20
6 4 8 7 5 5 3 2 2 1 2 2 4 5 5 12 13 16 14 11 10 11 11 9 9 7 6 7 8 7 10 9 9 7 9 8 14 13 12 15 8 6 11 7
7 10 6 8 7 8 6 6 5 3 2 3 1 4 4 10 12 13 13 8 9 10 9 9 10 9 9 8 5 5 8 7 5 2 12 4 8 10 11 5 5 8 5 8
8 8 9 10 9 10 9 10 9 5 4 4 2 5 2 7 12 12 11 6 10 9 9 9 7 8 8 7 7 7 8 7 8 8 8 6 3 4 6 10 4 2 5 6
10 8 4 3 10 14 12 13 11 9 8 8 4 4 6 5 8 9 9 3 6 10 10 9 9 7 10 9 7 8 4 4 3 3 8 8 6 6 4 4 3 4 4 4
10 11 10 7 3 6 9 12 12 11 8 6 15 12 8 4 5 6 4 3 4 6 9 11 10 9 10 9 6 11 6 4 7 7 5 2 3 2 2 4 2 4 6 6
16 11 13 14 14 16 18 18 18 21 21 15 13 15 9 6 5 6 4 2 2 4 10 11 12 9 7 8 6 8 5 6 6 5 2 1 1 1 2 4 5 6 6 8
22 11 12 11 12 13 17 17 19 24 26 27 23 23 13 10 8 6 6 5 4 5 6 9 9 10 10 8 5 5 5 4 2 2 1 1 1 2 4 6 8 9 11 12
24 19 12 6 9 7 14 17 17 17 20 20 26 14 18 12 7 5 7 7 7 7 7 7 8 9 9 8 7 5 3 3 2 2 1 1 3 5 7 10 12 13 12 12
21 22 15 5 8 3 8 9 8 9 10 13 16 13 13 10 8 6 7 9 9 9 8 7 6 6 7 7 6 6 5 4 2 1 2 4 5 6 8 11 12 12 11 11
24 22 11 6 12 11 11 14 12 10 8 11 14 13 12 14 12 10 9 11 11 10 10 9 8 7 6 5 5 5 5 5 4 3 1 2 6 9 12 12 13 13 11 10
26 24 21 13 5 8 6 9 8 7 14 5 8 11 13 15 16 4 9 11 12 12 11 10 9 9 7 6 5 3 2 1 1 0 2 4 6 8 10 12 14 14 13 12
31 28 28 21 10 12 15 12 10 6 4 1 2 5 10 9 3 10 10 11 12 12 12 13 12 10 11 10 8 7 5 5 4 4 4 5 7 9 11 12 14 15 14 14
40 32 26 24 14 15 17 21 19 6 5 4 1 2 5 6 9 11 10 11 11 11 12 13 13 13 13 13 12 10 9 9 8 8 8 8 9 11 13 13 14 15 14 14
34 38 38 29 28 5 12 11 8 9 8 7 5 4 5 7 7 9 10 11 11 12 12 13 14 15 16 15 15 14 13 13 13 12 12 11 12 12 13 15 16 16 16 16
39 28 38 28 28 23 19 15 13 13 12 12 10 8 9 8 9 9 11 12 13 13 12 13 15 16 16 15 14 15 15 16 16 14 14 13 13 13 14 14 16 16 17 17
41 40 37 35 31 22 24 23 19 17 17 15 15 10 13 13 13 12 12 13 14 14 14 15 16 16 15 14 14 15 16 16 17 17 16 15 14 14 14 15 15 16 17 17
46 44 41 41 33 26 22 17 16 17 16 15 16 15 15 16 17 17 17 16 15 16 16 17 17 18 17 17 16 15 17 18 18 18 16 16 15 15 15 15 16 17 17 17

GFSCGP_700_spd_129.txt.gz
Wind_Speed
12 12 9 6 6 9 9 10 14 12 9 11 8 10 13 17 18 22 26 27 26 28 21 13 18 21 27 21 19 10 17 15 11 11 10 7 14 10 17 23 21 23 24 21
14 14 8 8 8 10 11 13 13 6 5 10 9 11 14 16 18 21 34 28 28 24 20 13 13 19 21 19 17 14 15 14 11 10 10 11 17 21 19 26 28 21 23 26
15 7 7 7 8 10 11 14 10 10 8 9 11 14 11 11 15 28 27 28 25 23 17 5 14 19 17 16 13 12 10 11 10 8 9 11 18 24 29 16 29 25 26 26
11 14 12 9 10 10 11 6 11 10 10 5 6 6 9 11 24 27 25 26 23 17 13 1 21 19 14 13 11 9 5 7 10 10 12 13 15 24 26 20 25 26 27 28
5 6 7 8 10 8 4 9 13 10 11 8 5 6 4 15 29 27 24 23 17 18 13 5 25 17 14 11 10 9 11 13 14 15 16 18 16 20 19 22 29 20 23 28
14 11 10 6 7 7 7 8 4 3 4 3 3 3 5 19 28 27 21 20 16 17 15 26 21 18 13 10 7 8 12 13 12 12 14 17 19 18 8 12 21 19 23 24
12 13 14 10 6 5 5 6 2 2 2 4 5 6 7 18 23 22 20 18 17 10 15 14 14 15 12 10 8 7 10 12 13 13 12 18 16 17 15 18 12 23 23 33
10 5 15 10 8 4 5 3 3 5 2 4 5 4 6 14 17 18 18 19 19 9 11 8 7 9 10 11 7 9 9 9 7 9 10 15 18 16 9 11 7 19 22 22
8 5 10 9 6 5 5 3 1 2 1 2 4 6 9 12 12 17 16 15 17 15 8 6 8 8 7 7 7 4 6 4 7 7 1 10 17 15 8 16 20 15 11 22
7 4 9 10 9 8 8 4 2 2 1 3 5 7 7 10 11 13 13 10 10 10 8 6 5 5 5 5 4 7 6 9 10 10 12 11 6 10 17 15 13 10 9 12
10 11 7 14 11 11 11 8 5 2 2 3 2 4 3 7 10 10 9 6 6 6 7 7 7 7 8 9 6 5 7 6 6 12 8 7 8 10 15 15 8 9 7 10
13 9 9 13 9 12 13 11 10 5 4 5 2 5 4 5 8 9 7 4 4 3 5 6 5 6 8 4 7 6 3 5 6 5 4 3 8 8 15 16 10 7 4 7
14 9 6 3 11 16 18 17 14 14 9 10 4 4 3 4 5 5 6 3 2 5 5 7 6 7 8 9 11 10 8 5 2 2 9 8 12 8 6 3 3 1 1 4
12 13 10 9 3 5 11 19 17 17 10 10 19 13 10 6 4 2 2 3 3 3 7 5 8 9 8 6 6 6 8 6 8 5 4 4 2 0 1 3 3 4 5 8
20 14 15 16 15 12 12 12 16 23 23 17 17 15 10 9 6 3 2 2 3 4 7 7 7 10 5 5 7 6 7 5 3 7 2 0 2 3 3 4 5 5 7 9
26 16 15 16 14 16 20 20 21 24 25 27 26 26 15 15 10 6 5 6 5 7 7 6 5 7 7 6 6 4 4 5 3 2 1 2 2 2 2 4 5 8 9 10
28 27 17 7 11 10 15 19 23 22 22 19 27 7 9 18 15 10 7 8 8 9 9 8 8 8 8 7 6 5 5 4 3 3 2 1 1 2 3 5 7 9 9 10
26 28 21 7 8 3 10 9 8 11 11 15 17 12 12 13 12 14 9 9 10 11 11 10 10 9 8 7 5 4 4 4 4 4 2 1 1 3 5 8 9 11 12 12
26 25 15 9 17 13 9 13 11 11 11 12 11 11 13 17 19 17 12 9 11 11 12 12 13 13 11 10 9 7 6 4 3 2 1 1 2 5 8 9 10 11 12 13
29 27 25 15 7 8 11 19 17 11 13 6 7 12 14 17 17 7 11 10 11 14 15 14 13 13 13 13 12 11 9 7 6 4 3 4 6 8 10 11 12 12 13 11
34 31 32 25 12 11 16 11 14 10 4 3 3 8 10 7 8 13 12 11 11 13 14 16 16 13 14 14 14 12 11 10 9 8 6 5 6 7 8 9 10 12 13 12
41 31 26 27 17 14 21 22 23 11 5 4 3 4 6 9 8 10 11 11 11 12 13 15 15 15 15 15 14 13 12 13 11 10 10 9 9 8 9 10 11 12 13 14
42 42 37 33 37 8 16 5 14 15 7 6 5 4 5 5 6 7 8 10 10 11 12 13 14 15 16 15 15 15 15 14 14 12 12 11 11 11 10 10 11 13 14 15
41 41 43 35 36 29 22 13 19 15 11 8 7 6 5 4 6 6 7 9 10 12 13 13 15 15 15 15 14 15 17 16 15 14 14 14 13 13 12 12 12 13 14 15
41 40 40 42 38 21 28 23 20 16 15 12 11 9 9 8 7 7 7 7 9 11 13 15 15 15 15 16 15 16 16 15 15 15 16 15 15 15 14 13 13 13 14 16
49 52 51 46 34 27 22 21 22 18 18 15 12 12 13 12 11 10 8 9 12 12 13 16 16 17 17 17 17 17 17 16 16 17 17 17 17 16 15 14 14 14 15 17

GFSCGP_700_spd_132.txt.gz
Wind_Speed
13 14 15 9 11 10 10 11 13 13 12 12 8 9 8 13 17 21 24 31 31 29 22 19 19 22 25 20 21 20 13 19 12 4 7 4 5 24 29 29 31 26 25 25
14 19 10 15 14 11 12 13 14 11 9 14 14 15 14 13 16 20 27 29 26 22 16 16 17 16 18 17 19 15 12 12 10 8 9 1 11 31 22 26 28 30 27 24
17 11 7 13 13 12 12 14 12 13 12 13 16 17 4 8 11 20 25 26 23 20 12 7 12 14 14 17 16 13 9 6 11 13 11 9 12 16 26 27 27 29 30 27
15 13 16 14 14 12 14 9 10 13 11 4 10 7 15 5 17 22 23 22 20 18 7 1 10 14 14 16 16 11 6 12 14 11 10 8 13 15 24 29 21 31 33 37
6 6 11 15 12 11 8 10 13 12 10 11 9 6 5 8 21 22 20 18 20 17 9 13 14 13 14 15 15 14 10 9 9 12 13 13 14 13 18 16 27 19 29 25
18 13 12 12 11 9 10 10 10 5 3 3 3 3 7 10 21 21 19 14 14 14 21 19 15 14 12 13 12 11 12 11 12 14 14 15 16 14 18 9 13 22 14 18
17 20 19 14 12 10 9 6 3 2 1 4 5 6 7 12 18 19 17 17 12 13 11 9 11 10 10 10 9 7 8 8 9 8 11 12 13 14 14 14 13 11 17 21
14 7 20 18 17 8 9 7 3 5 2 4 4 5 5 11 13 16 15 15 13 8 4 3 7 9 7 6 2 2 3 5 5 7 8 9 12 14 15 14 8 13 17 24
12 9 11 10 15 12 8 7 5 2 1 3 3 7 8 8 9 10 9 11 9 6 7 7 5 7 7 4 1 2 2 3 4 1 7 10 13 15 10 12 16 10 16 15
9 5 13 17 15 14 11 6 4 4 1 3 5 7 6 7 8 7 5 6 7 5 5 6 6 5 6 4 5 6 8 9 6 5 7 11 16 7 2 7 11 16 13 22
20 13 11 18 17 16 14 13 8 4 3 4 2 5 4 5 7 7 2 4 6 6 7 7 8 8 6 5 6 8 7 9 5 8 10 10 14 13 12 10 9 9 10 12
25 11 10 19 12 13 16 14 13 6 6 6 2 7 5 3 4 6 3 2 1 5 8 8 11 11 8 9 8 7 8 10 8 13 7 7 5 11 16 11 12 10 5 8
25 12 8 6 12 18 20 22 19 17 9 11 5 4 5 2 3 2 3 1 2 3 6 7 9 10 12 13 13 10 11 8 6 8 5 4 7 5 3 7 2 4 5 6
18 16 12 12 4 7 13 22 25 22 13 14 22 13 11 9 6 3 1 2 3 5 5 5 10 10 8 10 9 11 10 11 12 11 9 11 10 7 6 5 4 2 4 5
23 17 19 18 13 11 11 12 17 28 28 19 19 17 7 11 10 6 5 3 4 6 9 7 9 8 9 9 8 8 8 7 7 9 7 6 5 5 4 2 1 4 5 8
29 19 20 19 16 17 19 18 20 22 25 30 29 27 18 15 15 8 6 7 6 8 9 8 9 7 6 8 8 8 7 7 5 4 5 4 4 4 2 1 2 4 6 9
33 31 22 10 14 13 15 24 24 27 27 23 27 6 8 14 19 12 8 8 10 9 9 8 8 8 8 7 5 5 5 5 5 4 5 5 5 4 1 3 4 5 6 7
30 30 24 7 12 5 15 12 12 14 15 17 17 12 12 14 14 15 14 11 13 12 11 10 8 7 7 7 6 5 5 4 5 4 4 4 4 3 2 3 5 6 7 8
27 26 16 11 19 11 11 19 14 12 11 10 10 11 15 17 18 20 16 12 14 14 14 14 14 12 10 9 7 6 6 6 5 5 3 2 1 1 3 5 6 7 7 8
29 29 27 17 7 9 17 22 11 12 17 10 8 12 16 17 17 9 13 13 13 17 18 17 16 14 13 12 10 9 8 7 6 5 5 4 2 2 4 6 8 9 10 12
34 32 34 26 13 11 14 13 18 16 8 6 6 8 10 9 8 14 16 16 14 13 15 17 17 16 15 15 14 13 11 11 10 8 7 6 5 6 6 8 9 10 12 12
40 32 29 30 24 13 16 21 20 17 10 7 8 8 12 16 16 12 13 14 13 12 13 15 17 17 18 17 17 16 15 16 14 13 11 10 10 10 10 10 11 11 12 13
42 40 39 33 33 6 26 22 23 14 11 9 9 8 9 10 10 9 10 10 10 10 11 12 14 17 18 17 17 17 18 18 16 16 15 14 12 12 12 12 12 12 13 14
43 42 39 37 38 36 24 14 17 22 15 13 12 9 8 8 9 9 9 9 8 9 9 11 13 14 15 15 16 17 20 19 18 18 16 15 14 14 13 13 12 12 13 13
41 43 45 44 37 29 32 30 14 21 24 16 14 12 11 10 7 8 8 8 9 9 8 10 12 13 13 15 15 17 18 17 17 17 17 16 15 15 15 15 14 13 13 13
48 52 52 51 42 35 33 23 27 28 19 19 18 15 15 13 9 9 9 10 10 9 8 10 13 16 16 17 17 18 19 18 17 17 17 16 17 17 17 16 15 15 14 14

GFSCGP_700_spd_135.txt.gz
Wind_Speed
14 15 16 9 12 12 12 11 12 9 13 13 10 12 12 15 19 23 26 32 36 33 32 30 28 25 24 28 29 22 20 18 22 17 14 6 10 23 35 30 31 29 30 29
17 19 12 14 16 14 14 14 12 11 9 14 14 17 18 17 19 19 28 30 29 24 21 21 19 16 18 17 14 22 22 16 19 14 12 9 8 22 48 39 34 30 28 28
18 12 7 11 16 15 14 15 13 11 12 14 14 11 1 7 11 21 25 26 27 28 18 11 6 6 8 12 21 23 22 18 18 15 10 8 13 16 40 33 31 32 32 30
17 19 21 18 14 13 14 11 9 9 11 4 7 5 8 6 11 22 23 23 24 17 12 9 12 10 12 14 21 18 18 14 15 15 12 10 14 19 18 23 27 31 34 29
10 9 9 17 16 12 12 10 10 11 9 9 7 4 3 4 12 20 20 16 14 16 17 16 12 10 13 13 14 13 9 12 15 14 14 12 9 12 15 25 31 34 32 31
23 19 11 11 12 11 11 10 11 9 4 3 5 4 4 4 13 17 19 6 10 12 12 14 11 10 8 11 11 8 8 9 8 13 12 11 12 14 19 11 18 27 35 39
26 25 22 18 15 14 13 8 2 1 2 3 6 6 5 6 11 13 14 5 8 8 7 4 8 9 7 8 7 7 6 8 10 10 12 12 11 15 16 15 7 13 18 21
20 8 25 21 23 13 14 12 5 4 2 2 6 7 2 5 8 9 9 4 7 4 3 6 5 7 8 6 5 4 3 2 2 4 6 7 10 12 16 17 20 14 15 26
13 10 11 13 20 20 12 13 10 3 1 2 4 6 8 4 5 5 3 3 4 5 7 6 7 4 3 3 3 6 6 5 3 2 7 9 9 10 9 14 10 11 12 24
11 6 12 20 17 21 16 8 6 6 3 3 5 8 8 5 4 3 1 1 1 3 5 9 11 10 8 7 5 6 9 7 3 4 2 9 14 10 9 9 11 13 13 15
30 15 11 20 21 23 21 19 10 6 4 3 2 5 6 4 2 2 4 3 2 3 5 7 10 9 10 9 10 8 9 8 5 9 10 10 16 11 7 8 10 13 14 14
32 16 13 23 17 18 21 20 19 7 6 6 2 7 8 5 2 1 4 3 4 4 6 8 8 9 8 9 12 12 11 9 8 8 10 14 13 14 12 10 6 6 8 7
36 15 8 6 17 22 25 27 24 21 8 11 6 4 10 6 4 4 3 3 4 6 7 10 12 8 11 9 10 13 11 6 9 8 8 12 12 10 10 7 5 3 5 8
21 27 18 16 5 13 29 29 28 25 14 13 22 9 9 7 6 6 5 3 6 7 8 11 11 12 12 13 13 13 10 11 13 16 14 12 11 12 11 11 11 8 8 5
29 27 27 19 10 9 9 11 24 33 30 19 17 16 9 13 13 10 9 7 5 7 9 13 12 11 14 13 15 16 15 10 10 11 11 11 11 10 10 9 8 7 7 5
36 22 26 24 25 21 20 18 18 20 26 29 28 25 16 16 15 16 10 11 8 9 11 14 13 13 13 13 13 13 12 13 11 9 10 9 7 7 8 7 6 5 2 3
41 38 29 17 23 20 20 29 26 25 24 20 26 7 10 13 21 18 13 11 11 11 11 11 11 11 12 13 12 12 11 10 9 9 10 9 8 7 6 4 5 5 5 4
42 42 29 13 15 6 18 17 18 20 20 20 19 15 12 11 11 19 18 14 14 15 14 13 12 11 10 10 10 11 11 10 10 9 9 8 7 5 5 5 5 4 3 2
40 42 22 14 22 9 13 22 23 20 15 14 13 15 18 19 18 21 23 19 17 15 14 13 13 13 12 12 11 10 9 9 9 9 9 7 6 5 5 5 5 5 6 6
37 40 32 21 9 9 15 16 12 18 20 17 14 15 18 20 19 13 19 20 18 20 20 18 15 13 12 12 12 11 11 10 9 8 7 6 4 3 2 2 2 3 4 5
38 38 39 27 13 12 13 16 26 15 8 11 11 12 14 13 10 18 21 21 18 17 19 19 17 15 13 13 12 11 10 10 8 8 7 5 4 3 2 3 4 6 7 8
41 31 28 28 18 9 18 16 20 24 19 10 10 11 13 17 18 16 16 19 18 17 18 18 18 17 17 16 15 14 13 12 10 10 9 8 7 7 7 8 8 9 9 10
35 41 38 36 32 6 26 24 21 9 14 14 11 12 13 14 14 14 15 15 14 15 14 15 16 18 18 18 17 17 18 16 15 14 13 13 12 12 12 12 12 12 12 12
46 40 35 35 35 34 16 10 25 17 15 14 13 12 12 14 15 15 15 15 14 13 14 16 16 16 16 16 17 19 21 19 19 18 17 16 15 15 14 14 14 14 14 13
44 38 42 38 29 23 29 29 13 14 21 16 18 16 14 15 15 15 15 14 14 14 14 14 14 14 13 14 17 20 20 19 19 19 18 17 16 15 15 15 15 15 15 15
43 53 50 49 43 38 31 23 24 27 22 25 20 19 18 16 14 14 15 15 14 12 12 12 13 14 14 15 17 19 20 19 18 19 18 17 17 16 15 15 15 16 16 16

GFSCGP_700_spd_138.txt.gz
Wind_Speed
16 17 16 13 14 16 14 11 13 12 14 18 13 15 14 19 21 23 25 25 33 35 33 36 33 22 20 20 26 28 30 32 26 25 25 22 18 17 19 21 34 38 40 41
18 21 16 17 18 17 17 13 15 14 12 15 13 18 18 22 21 21 20 29 32 31 23 17 15 12 11 14 20 25 27 28 26 23 24 23 22 16 18 29 36 38 39 39
19 12 7 13 17 20 18 16 14 14 14 17 16 14 8 6 11 14 21 27 26 20 13 10 8 3 4 8 13 20 26 24 21 21 24 20 19 23 26 39 36 36 39 38
18 20 24 24 21 15 16 16 16 13 8 8 7 5 9 13 10 14 21 24 15 9 10 13 10 8 8 10 15 21 24 21 17 22 21 16 16 20 27 40 38 42 36 38
12 11 11 15 19 18 13 15 13 13 12 12 10 7 6 8 9 14 17 15 5 7 9 12 11 9 8 13 14 14 17 16 18 20 18 16 17 5 22 37 38 39 37 34
23 22 15 11 11 16 17 13 13 13 7 8 8 6 5 7 7 12 12 7 1 8 7 10 10 9 9 11 11 12 12 13 15 16 15 16 14 14 12 18 26 35 32 32
23 31 28 23 14 16 16 9 4 5 5 2 5 6 10 10 9 9 7 5 1 6 3 3 7 6 8 8 9 9 8 6 5 14 7 11 6 8 14 17 32 30 29 30
22 11 29 30 25 14 19 15 7 4 3 1 7 8 5 11 7 6 4 2 2 2 3 6 6 7 8 7 6 3 2 3 5 4 3 4 4 9 9 13 15 23 28 32
13 12 13 18 24 23 17 16 15 5 8 4 7 7 10 12 7 5 4 1 0 1 5 8 8 7 6 5 4 7 9 8 7 7 9 9 11 12 12 10 15 21 15 18
16 5 13 19 18 24 18 13 7 9 4 5 6 7 9 11 7 5 6 4 3 2 3 8 11 10 8 8 10 11 10 8 3 6 10 13 11 11 14 14 14 14 14 17
27 15 7 19 23 21 31 21 13 8 6 3 3 3 7 9 6 4 9 6 5 4 4 8 12 13 13 11 10 12 11 8 6 4 8 12 14 13 11 15 13 11 10 11
38 19 16 19 19 24 20 20 22 13 7 8 3 4 10 10 6 5 10 8 7 5 5 7 9 11 13 13 11 11 11 10 7 6 5 12 15 12 13 13 12 8 5 9
41 21 15 7 16 23 30 32 26 21 11 12 5 3 11 12 8 7 6 8 10 9 7 6 8 9 8 9 10 11 9 6 10 6 10 11 13 16 15 15 16 15 14 15
28 26 35 22 11 17 26 34 34 28 18 13 19 6 12 14 10 6 6 6 10 12 11 10 9 10 10 10 10 11 6 6 9 6 11 12 15 13 12 11 11 11 6 9
28 27 32 25 23 14 15 24 33 34 29 19 8 15 16 16 14 10 10 9 8 12 11 13 12 12 12 9 12 11 12 14 12 11 12 14 15 14 12 11 9 8 8 6
37 20 29 28 29 20 17 15 18 25 31 32 26 25 17 16 19 18 14 11 10 11 12 17 14 16 14 15 15 14 12 13 12 12 12 11 11 9 7 6 5 3 1 4
31 29 26 26 28 27 24 37 29 27 27 28 28 13 12 21 26 21 16 14 12 11 14 17 15 16 16 16 17 16 14 12 8 11 12 12 12 10 8 6 5 4 4 4
27 31 26 16 15 11 24 20 24 30 29 30 28 22 13 11 13 24 19 15 15 15 15 17 16 17 18 17 16 16 16 15 13 12 11 10 9 9 8 7 6 5 3 2
32 29 26 17 22 11 25 25 24 26 28 28 25 22 21 21 18 20 26 23 16 15 14 14 15 16 16 17 17 16 15 15 14 13 12 11 10 8 8 7 5 3 2 1
31 36 37 16 15 13 22 7 20 25 27 24 19 20 24 27 27 22 23 26 23 20 21 19 18 17 18 17 17 16 15 15 14 13 13 12 11 8 6 5 3 1 2 3
33 32 36 37 19 14 20 22 22 16 14 18 18 18 20 17 11 16 22 26 22 19 20 20 19 15 15 16 16 16 15 15 14 14 13 12 10 8 6 4 3 2 2 3
38 27 26 36 28 17 23 25 32 25 16 9 16 15 13 15 20 20 21 25 24 21 21 20 18 18 17 17 16 16 15 15 15 14 13 12 10 9 7 6 5 5 5 6
31 32 32 32 36 16 19 21 19 20 19 24 12 13 18 20 21 18 20 23 22 20 18 19 19 19 18 17 16 16 16 13 13 13 12 12 12 11 10 9 8 8 8 9
38 36 34 31 31 28 17 29 28 21 7 18 19 16 15 16 19 20 20 21 21 20 20 19 20 20 19 18 17 18 18 17 16 16 15 14 14 13 13 12 12 11 11 12
43 39 32 32 26 36 40 17 18 20 17 17 17 16 17 19 19 19 20 20 19 18 18 19 18 17 17 18 19 20 19 18 18 18 18 17 16 15 15 15 14 14 14 14
42 43 42 37 27 28 32 39 26 15 16 19 18 17 20 20 19 20 21 19 19 18 17 17 18 19 19 19 20 20 20 19 19 19 19 18 17 18 18 17 16 16 16 16

GFSCGP_700_spd_141.txt.gz
Wind_Speed
14 13 18 14 16 18 18 16 17 16 14 18 19 19 18 17 18 19 17 16 17 23 35 35 28 23 19 19 22 29 34 34 33 26 26 28 27 28 28 28 26 28 32 46
18 20 17 16 18 16 16 18 19 17 16 16 18 23 20 17 20 17 17 19 23 31 23 19 16 12 11 12 17 24 26 31 34 31 27 28 29 27 25 19 23 23 34 41
24 11 15 17 18 17 18 19 19 18 17 20 21 28 17 16 14 15 16 19 23 15 11 11 9 7 4 3 7 14 21 26 27 27 30 28 26 27 27 23 21 28 34 39
24 23 23 17 17 15 18 15 17 16 13 12 4 9 10 12 12 13 9 13 14 8 7 7 7 7 6 3 3 9 17 21 21 24 24 22 24 25 24 24 26 33 35 37
17 16 17 23 22 18 18 18 15 11 14 18 20 12 12 12 12 11 9 15 8 4 3 4 7 8 7 9 8 8 11 14 17 16 18 17 21 24 20 19 28 40 36 35
26 18 16 15 15 13 14 16 11 11 11 12 21 18 8 10 11 12 12 10 5 4 1 3 5 7 7 6 6 4 8 11 10 12 15 15 17 18 24 21 24 36 39 42
26 30 23 25 17 15 18 9 4 6 6 4 2 9 18 9 15 12 10 8 3 5 3 2 4 6 6 6 5 4 2 4 8 8 12 13 15 26 22 15 28 30 40 35
28 17 31 26 30 13 21 18 8 5 4 2 3 9 5 14 15 11 9 6 3 3 4 3 3 4 5 6 6 7 6 4 5 2 5 5 17 11 9 9 18 30 38 21
18 21 15 18 18 21 13 24 20 19 16 9 11 11 14 15 14 11 10 6 4 1 3 6 5 6 5 5 5 7 10 10 8 8 10 9 7 5 7 10 10 21 29 30
18 14 15 23 19 23 22 12 11 13 4 6 10 13 12 11 16 11 10 8 6 4 3 5 9 9 9 9 7 8 10 10 8 10 12 10 8 8 8 6 5 13 18 14
36 20 9 17 25 23 28 22 12 12 14 4 5 3 6 14 11 8 11 10 8 6 6 6 8 11 11 9 8 8 7 5 3 3 8 12 11 12 13 12 15 15 15 6
36 22 24 25 12 21 22 24 24 14 11 13 14 7 5 11 10 9 11 11 9 8 7 9 10 11 11 10 9 9 8 6 2 3 10 11 10 11 11 13 11 12 11 10
29 30 23 18 15 20 27 29 28 27 19 16 10 3 9 12 12 10 9 12 11 10 8 8 12 13 13 13 12 11 9 5 1 3 6 12 7 5 8 8 12 12 12 11
21 33 39 29 22 21 28 32 33 30 28 26 26 12 9 13 14 11 10 10 10 12 11 10 10 11 12 12 13 13 9 4 6 4 5 9 8 7 10 9 6 4 5 6
30 26 34 34 38 15 18 29 36 39 39 24 23 22 20 16 13 10 10 12 10 11 12 12 10 9 12 12 12 11 10 8 8 6 7 7 9 9 7 9 7 8 5 4
33 31 27 32 31 26 22 21 27 38 35 35 22 19 10 15 17 20 17 14 12 10 11 13 12 11 11 11 13 12 12 13 11 11 11 12 13 10 8 9 9 7 5 4
29 29 29 28 28 20 25 34 28 29 33 33 33 25 17 20 24 21 15 15 13 12 11 14 13 13 12 13 14 14 13 14 12 13 14 13 11 10 9 7 6 5 3 1
30 25 23 27 23 17 30 28 38 34 27 27 27 20 18 12 15 19 19 15 15 16 15 17 17 15 16 16 16 15 14 12 11 11 11 12 11 11 10 8 5 3 1 0
37 19 13 20 24 17 20 21 30 30 34 36 35 29 26 22 17 21 21 22 18 16 17 17 17 16 16 17 17 16 14 13 12 12 12 12 11 9 7 5 4 3 1 0
42 37 17 14 24 21 26 17 20 21 25 25 27 26 29 29 30 25 19 24 24 22 21 21 21 19 19 18 18 18 17 16 15 14 13 12 11 10 9 8 7 5 3 2
31 37 32 35 18 29 17 26 19 24 14 21 26 24 22 27 20 13 16 21 25 21 22 22 20 18 18 19 18 17 17 17 16 15 14 13 12 10 8 6 4 3 3 3
31 30 25 29 28 25 21 26 35 25 13 12 17 24 23 17 21 23 16 21 25 24 22 21 21 21 20 19 19 18 18 17 17 16 15 13 11 9 8 7 7 7 7 7
39 37 40 36 52 8 31 23 28 24 23 14 11 20 20 21 21 21 19 22 24 23 20 20 20 21 21 20 20 19 20 17 17 16 15 15 15 14 13 13 12 11 10 8
40 43 40 43 28 40 21 24 24 27 24 20 23 14 20 21 23 21 19 22 23 23 21 19 20 20 19 19 19 20 20 17 17 17 17 17 16 15 14 13 12 11 10 10
33 35 42 41 39 23 33 23 25 26 18 9 21 22 20 20 19 19 19 21 21 20 19 18 18 18 18 17 18 19 17 16 17 17 17 17 17 17 16 14 13 14 13 12
38 33 38 40 30 27 32 25 29 28 19 16 17 21 23 21 21 21 21 20 21 20 19 19 18 18 17 18 18 18 15 15 16 15 15 15 15 16 16 17 17 16 15 15

GFSCGP_700_spd_147.txt.gz
Wind_Speed
17 20 24 15 16 7 8 14 19 19 17 19 25 29 30 32 28 20 20 23 27 31 27 31 33 36 34 30 27 27 26 25 25 36 29 25 24 22 23 23 24 23 23 21
19 27 16 11 13 17 22 23 24 24 21 17 24 33 34 33 25 22 21 28 33 31 27 25 29 22 22 19 15 11 15 14 18 32 25 22 23 21 17 17 20 22 22 21
27 14 2 15 12 19 21 23 26 26 20 22 29 39 32 9 14 18 25 29 31 30 25 23 18 16 16 13 11 9 6 3 8 17 23 22 20 20 18 17 20 20 20 20
24 26 21 13 17 14 23 21 20 18 15 17 11 12 33 27 28 19 22 28 30 21 20 16 12 12 11 9 8 4 2 6 7 12 20 21 17 16 14 16 16 18 20 21
27 7 8 25 30 26 29 18 18 20 20 23 27 14 22 9 16 23 26 26 17 14 15 11 7 7 5 7 7 1 4 10 10 13 14 15 14 15 17 15 15 20 21 26
33 25 19 14 18 24 23 20 17 21 15 8 21 17 14 11 10 18 24 20 8 13 13 7 4 3 1 4 5 3 7 7 11 12 11 14 16 15 11 12 16 18 22 20
34 37 31 29 20 18 19 16 3 2 2 7 2 8 23 13 10 15 19 18 11 13 11 7 3 2 2 3 4 3 5 8 9 11 12 13 11 11 10 16 23 21 22 22
20 24 39 31 36 27 24 24 10 6 4 4 7 8 7 16 26 22 22 19 14 13 10 7 5 4 4 3 4 4 4 6 8 9 13 13 15 13 11 14 18 23 17 18
10 18 15 23 38 32 25 30 28 6 13 4 8 12 19 19 18 20 21 19 14 13 9 7 7 6 5 5 4 4 6 7 8 9 8 11 11 11 19 8 13 15 15 13
41 35 27 23 28 31 29 19 17 20 3 5 9 15 18 14 14 22 23 18 13 13 9 7 8 7 7 6 4 3 5 7 7 7 8 10 8 6 9 14 10 14 21 17
40 38 30 17 32 37 35 29 14 15 12 5 3 5 3 5 14 15 12 15 12 12 10 6 8 9 8 8 7 5 4 4 5 7 10 12 8 4 6 5 11 14 20 15
21 34 43 46 22 31 34 34 41 16 8 21 9 10 15 17 11 11 13 13 12 14 11 8 8 9 9 8 7 5 5 4 2 5 7 10 8 5 4 6 6 14 21 14
12 19 31 26 38 39 32 33 36 39 20 18 8 7 7 8 4 7 12 12 12 14 12 9 10 9 10 9 7 6 6 5 1 3 6 8 10 11 11 11 16 10 8 5
16 24 22 31 36 37 32 31 34 37 39 30 32 14 15 18 10 8 9 12 11 13 13 12 11 10 10 10 10 9 8 7 3 4 12 11 11 10 7 7 8 8 10 8
24 21 32 31 35 25 36 40 39 42 45 29 42 45 33 25 23 21 16 14 15 14 14 13 12 12 11 11 11 10 9 9 10 9 11 12 15 14 13 12 10 12 11 9
23 22 28 35 26 34 39 31 29 44 42 44 46 34 30 33 34 33 23 17 18 14 13 14 14 14 12 11 12 13 11 9 10 13 15 15 12 9 10 11 8 10 12 10
28 26 24 20 28 24 28 53 48 37 32 35 43 39 37 18 25 26 19 16 18 15 14 12 12 14 13 12 12 14 11 10 10 10 11 12 11 10 11 10 9 9 8 8
32 25 29 18 17 14 37 38 39 36 38 34 34 31 31 31 16 17 21 17 19 16 17 14 15 16 15 14 14 14 13 12 12 11 11 11 10 10 9 8 8 8 8 8
36 29 20 17 13 24 27 31 29 38 38 31 37 36 25 33 31 36 34 18 19 15 16 14 14 15 15 14 16 16 15 13 12 11 11 11 12 12 12 11 10 9 9 9
14 33 34 25 5 5 41 42 24 27 43 39 39 44 41 30 35 41 32 24 21 20 20 18 18 18 17 16 17 17 16 14 13 13 13 13 12 11 11 10 9 8 7 6
20 31 35 30 24 29 29 10 23 30 29 21 34 39 37 46 43 30 25 23 19 22 23 23 21 18 17 17 17 17 16 15 15 15 14 13 12 11 11 10 9 7 5 3
27 18 24 31 25 28 51 26 18 29 33 33 8 19 29 31 35 36 34 25 25 23 28 27 23 23 21 19 18 17 15 15 16 15 14 13 12 11 9 7 4 2 1 1
35 37 25 18 28 44 40 44 30 21 13 29 26 21 19 30 31 32 35 28 27 26 27 28 24 25 23 21 20 18 16 16 15 14 14 13 12 10 7 5 3 2 3 5
28 27 37 39 40 35 35 36 37 33 23 21 20 23 13 14 23 23 27 29 27 28 30 29 27 27 25 23 22 20 18 17 16 15 13 12 12 10 9 7 7 7 7 7
35 30 29 29 36 30 26 26 32 29 24 15 17 25 18 15 20 28 28 29 27 26 29 28 27 25 25 23 23 21 20 19 18 17 15 14 13 12 12 11 11 10 9 9
38 35 34 40 26 24 32 22 22 25 22 26 28 22 17 19 19 25 29 30 28 26 30 29 27 27 26 24 22 20 19 19 18 16 14 13 13 13 13 12 13 12 11 11